Back to catalog

COSMOS 1275 DEB

AlivePO
NORAD 42154·DEBRIS·🇷🇺 Russia

Launched Jun 4, 1981 from Plesetsk Cosmodrome

Loading…

Next Passes (next 24 hours)

TLE

AgingSource: Space-Track

Epoch: Sep 7, 2026, 17:59 UTC

1 42154U 81053RS  26250.74969044  .00000308  00000-0  32061-3 0  9997
2 42154  82.8047 251.9769 0130173  87.5795  34.4522 13.68738617582872

Track COSMOS 1275 DEB in real time with AllMySat

Download on the App Store